Year,Month,Day,Hour,Minute,Value (Times are PST for temperature in C)
2011,07,19,00,00,13.60
2011,07,19,00,01,13.60
2011,07,19,00,02,13.60
2011,07,19,00,03,13.60
2011,07,19,00,04,13.50
2011,07,19,00,05,13.50
2011,07,19,00,06,13.50
2011,07,19,00,07,13.50
2011,07,19,00,08,13.40
2011,07,19,00,09,13.40
2011,07,19,00,10,13.40
2011,07,19,00,11,13.40
2011,07,19,00,12,13.40
2011,07,19,00,13,13.40
2011,07,19,00,14,13.40
2011,07,19,00,15,13.40
2011,07,19,00,16,13.40
2011,07,19,00,17,13.40
2011,07,19,00,18,13.40
2011,07,19,00,19,13.40
2011,07,19,00,20,13.40
2011,07,19,00,21,13.40
2011,07,19,00,22,13.40
2011,07,19,00,23,13.30
2011,07,19,00,24,13.30
2011,07,19,00,25,13.30
2011,07,19,00,26,13.30
2011,07,19,00,27,13.30
2011,07,19,00,28,13.30
2011,07,19,00,29,13.30
2011,07,19,00,30,13.30
2011,07,19,00,31,13.30
2011,07,19,00,32,13.20
2011,07,19,00,33,13.20
2011,07,19,00,34,13.20
2011,07,19,00,35,13.20
2011,07,19,00,36,13.20
2011,07,19,00,37,13.20
2011,07,19,00,38,13.20
2011,07,19,00,39,13.20
2011,07,19,00,40,13.20
2011,07,19,00,41,13.10
2011,07,19,00,42,13.10
2011,07,19,00,43,13.10
2011,07,19,00,44,13.10
2011,07,19,00,45,13.10
2011,07,19,00,46,13.10
2011,07,19,00,47,13.10
2011,07,19,00,48,13.10
2011,07,19,00,49,13.10
2011,07,19,00,50,13.10
2011,07,19,00,51,13.10
2011,07,19,00,52,13.00
2011,07,19,00,53,13.00
2011,07,19,00,54,13.00
2011,07,19,00,55,13.00
2011,07,19,00,56,13.00
2011,07,19,00,57,13.00
2011,07,19,00,58,13.00
2011,07,19,00,59,12.90
2011,07,19,01,00,12.90
2011,07,19,01,01,12.90
2011,07,19,01,02,12.90
2011,07,19,01,03,12.90
2011,07,19,01,04,12.90
2011,07,19,01,05,12.90
2011,07,19,01,06,12.90
2011,07,19,01,07,12.90
2011,07,19,01,08,12.90
2011,07,19,01,09,12.90
2011,07,19,01,10,12.80
2011,07,19,01,11,12.80
2011,07,19,01,12,12.80
2011,07,19,01,13,12.80
2011,07,19,01,14,12.80
2011,07,19,01,15,12.80
2011,07,19,01,16,12.80
2011,07,19,01,17,12.80
2011,07,19,01,18,12.80
2011,07,19,01,19,12.80
2011,07,19,01,20,12.80
2011,07,19,01,21,12.70
2011,07,19,01,22,12.70
2011,07,19,01,23,12.70
2011,07,19,01,24,12.70
2011,07,19,01,25,12.70
2011,07,19,01,26,12.70
2011,07,19,01,27,12.70
2011,07,19,01,28,12.70
2011,07,19,01,29,12.70
2011,07,19,01,30,12.70
2011,07,19,01,31,12.70
2011,07,19,01,32,12.70
2011,07,19,01,33,12.70
2011,07,19,01,34,12.70
2011,07,19,01,35,12.70
2011,07,19,01,36,12.70
2011,07,19,01,37,12.70
2011,07,19,01,38,12.70
2011,07,19,01,39,12.70
2011,07,19,01,40,12.70
2011,07,19,01,41,12.60
2011,07,19,01,42,12.60
2011,07,19,01,43,12.60
2011,07,19,01,44,12.60
2011,07,19,01,45,12.60
2011,07,19,01,46,12.60
2011,07,19,01,47,12.60
2011,07,19,01,48,12.60
2011,07,19,01,49,12.60
2011,07,19,01,50,12.60
2011,07,19,01,51,12.60
2011,07,19,01,52,12.60
2011,07,19,01,53,12.60
2011,07,19,01,54,12.60
2011,07,19,01,55,12.50
2011,07,19,01,56,12.50
2011,07,19,01,57,12.50
2011,07,19,01,58,12.50
2011,07,19,01,59,12.50
2011,07,19,02,00,12.40
2011,07,19,02,01,12.40
2011,07,19,02,02,12.40
2011,07,19,02,03,12.40
2011,07,19,02,04,12.40
2011,07,19,02,05,12.40
2011,07,19,02,06,12.40
2011,07,19,02,07,12.40
2011,07,19,02,08,12.40
2011,07,19,02,09,12.40
2011,07,19,02,10,12.40
2011,07,19,02,11,12.30
2011,07,19,02,12,12.30
2011,07,19,02,13,12.30
2011,07,19,02,14,12.30
2011,07,19,02,15,12.30
2011,07,19,02,16,12.30
2011,07,19,02,17,12.30
2011,07,19,02,18,12.30
2011,07,19,02,19,12.30
2011,07,19,02,20,12.30
2011,07,19,02,21,12.30
2011,07,19,02,22,12.30
2011,07,19,02,23,12.30
2011,07,19,02,24,12.30
2011,07,19,02,25,12.30
2011,07,19,02,26,12.30
2011,07,19,02,27,12.30
2011,07,19,02,28,12.30
2011,07,19,02,29,12.30
2011,07,19,02,30,12.20
2011,07,19,02,31,12.20
2011,07,19,02,32,12.20
2011,07,19,02,33,12.20
2011,07,19,02,34,12.20
2011,07,19,02,35,12.20
2011,07,19,02,36,12.20
2011,07,19,02,37,12.20
2011,07,19,02,38,12.20
2011,07,19,02,39,12.20
2011,07,19,02,40,12.20
2011,07,19,02,41,12.20
2011,07,19,02,42,12.20
2011,07,19,02,43,12.20
2011,07,19,02,44,12.20
2011,07,19,02,45,12.20
2011,07,19,02,46,12.20
2011,07,19,02,47,12.20
2011,07,19,02,48,12.20
2011,07,19,02,49,12.20
2011,07,19,02,50,12.20
2011,07,19,02,51,12.10
2011,07,19,02,52,12.10
2011,07,19,02,53,12.10
2011,07,19,02,54,12.10
2011,07,19,02,55,12.10
2011,07,19,02,56,12.10
2011,07,19,02,57,12.10
2011,07,19,02,58,12.10
2011,07,19,02,59,12.10
2011,07,19,03,00,12.10
2011,07,19,03,01,12.00
2011,07,19,03,02,12.00
2011,07,19,03,03,12.00
2011,07,19,03,04,12.00
2011,07,19,03,05,12.00
2011,07,19,03,06,12.00
2011,07,19,03,07,12.00
2011,07,19,03,08,12.00
2011,07,19,03,09,12.00
2011,07,19,03,10,12.00
2011,07,19,03,11,12.00
2011,07,19,03,12,12.00
2011,07,19,03,13,12.00
2011,07,19,03,14,12.00
2011,07,19,03,15,12.00
2011,07,19,03,16,12.00
2011,07,19,03,17,12.00
2011,07,19,03,18,12.00
2011,07,19,03,19,12.00
2011,07,19,03,20,12.00
2011,07,19,03,21,12.00
2011,07,19,03,22,12.00
2011,07,19,03,23,12.00
2011,07,19,03,24,11.90
2011,07,19,03,25,11.90
2011,07,19,03,26,11.90
2011,07,19,03,27,11.90
2011,07,19,03,28,11.90
2011,07,19,03,29,11.90
2011,07,19,03,30,11.90
2011,07,19,03,31,11.90
2011,07,19,03,32,11.90
2011,07,19,03,33,11.90
2011,07,19,03,34,11.90
2011,07,19,03,35,11.90
2011,07,19,03,36,11.90
2011,07,19,03,37,11.90
2011,07,19,03,38,11.90
2011,07,19,03,39,11.90
2011,07,19,03,40,11.90
2011,07,19,03,41,11.90
2011,07,19,03,42,11.90
2011,07,19,03,43,12.00
2011,07,19,03,44,12.00
2011,07,19,03,45,11.90
2011,07,19,03,46,11.90
2011,07,19,03,47,11.90
2011,07,19,03,48,11.90
2011,07,19,03,49,11.90
2011,07,19,03,50,11.90
2011,07,19,03,51,11.90
2011,07,19,03,52,11.90
2011,07,19,03,53,11.80
2011,07,19,03,54,11.80
2011,07,19,03,55,11.80
2011,07,19,03,56,11.80
2011,07,19,03,57,11.80
2011,07,19,03,58,11.80
2011,07,19,03,59,11.80
2011,07,19,04,00,11.80
2011,07,19,04,01,11.80
2011,07,19,04,02,11.80
2011,07,19,04,03,11.80
2011,07,19,04,04,11.80
2011,07,19,04,05,11.80
2011,07,19,04,06,11.80
2011,07,19,04,07,11.80
2011,07,19,04,08,11.80
2011,07,19,04,09,11.80
2011,07,19,04,10,11.80
2011,07,19,04,11,11.80
2011,07,19,04,12,11.80
2011,07,19,04,13,11.80
2011,07,19,04,14,11.80
2011,07,19,04,15,11.80
2011,07,19,04,16,11.80
2011,07,19,04,17,11.80
2011,07,19,04,18,11.80
2011,07,19,04,19,11.80
2011,07,19,04,20,11.80
2011,07,19,04,21,11.80
2011,07,19,04,22,11.80
2011,07,19,04,23,11.80
2011,07,19,04,24,11.80
2011,07,19,04,25,11.80
2011,07,19,04,26,11.80
2011,07,19,04,27,11.80
2011,07,19,04,28,11.80
2011,07,19,04,29,11.80
2011,07,19,04,30,11.80
2011,07,19,04,31,11.80
2011,07,19,04,32,11.80
2011,07,19,04,33,11.80
2011,07,19,04,34,11.80
2011,07,19,04,35,11.80
2011,07,19,04,36,11.80
2011,07,19,04,37,11.80
2011,07,19,04,38,11.70
2011,07,19,04,39,11.70
2011,07,19,04,40,11.70
2011,07,19,04,41,11.70
2011,07,19,04,42,11.70
2011,07,19,04,43,11.70
2011,07,19,04,44,11.70
2011,07,19,04,45,11.70
2011,07,19,04,46,11.70
2011,07,19,04,47,11.70
2011,07,19,04,48,11.70
2011,07,19,04,49,11.70
2011,07,19,04,50,11.70
2011,07,19,04,51,11.70
2011,07,19,04,52,11.70
2011,07,19,04,53,11.70
2011,07,19,04,54,11.70
2011,07,19,04,55,11.60
2011,07,19,04,56,11.60
2011,07,19,04,57,11.60
2011,07,19,04,58,11.60
2011,07,19,04,59,11.60
2011,07,19,05,00,11.60
2011,07,19,05,01,11.60
2011,07,19,05,02,11.50
2011,07,19,05,03,11.50
2011,07,19,05,04,11.50
2011,07,19,05,05,11.50
2011,07,19,05,06,11.50
2011,07,19,05,07,11.50
2011,07,19,05,08,11.40
2011,07,19,05,09,11.40
2011,07,19,05,10,11.40
2011,07,19,05,11,11.40
2011,07,19,05,12,11.40
2011,07,19,05,13,11.40
2011,07,19,05,14,11.40
2011,07,19,05,15,11.40
2011,07,19,05,16,11.40
2011,07,19,05,17,11.40
2011,07,19,05,18,11.40
2011,07,19,05,19,11.40
2011,07,19,05,20,11.40
2011,07,19,05,21,11.40
2011,07,19,05,22,11.40
2011,07,19,05,23,11.40
2011,07,19,05,24,11.40
2011,07,19,05,25,11.40
2011,07,19,05,26,11.40
2011,07,19,05,27,11.40
2011,07,19,05,28,11.40
2011,07,19,05,29,11.40
2011,07,19,05,30,11.40
2011,07,19,05,31,11.40
2011,07,19,05,32,11.40
2011,07,19,05,33,11.40
2011,07,19,05,34,11.40
2011,07,19,05,35,11.40
2011,07,19,05,36,11.40
2011,07,19,05,37,11.40
2011,07,19,05,38,11.40
2011,07,19,05,39,11.40
2011,07,19,05,40,11.40
2011,07,19,05,41,11.40
2011,07,19,05,42,11.40
2011,07,19,05,43,11.40
2011,07,19,05,44,11.40
2011,07,19,05,45,11.40
2011,07,19,05,46,11.40
2011,07,19,05,47,11.40
2011,07,19,05,48,11.40
2011,07,19,05,49,11.40
2011,07,19,05,50,11.40
2011,07,19,05,51,11.40
2011,07,19,05,52,11.40
2011,07,19,05,53,11.50
2011,07,19,05,54,11.50
2011,07,19,05,55,11.50
2011,07,19,05,56,11.50
2011,07,19,05,57,11.50
2011,07,19,05,58,11.50
2011,07,19,05,59,11.50
2011,07,19,06,00,11.50
2011,07,19,06,01,11.50
2011,07,19,06,02,11.50
2011,07,19,06,03,11.50
2011,07,19,06,04,11.50
2011,07,19,06,05,11.60
2011,07,19,06,06,11.60
2011,07,19,06,07,11.60
2011,07,19,06,08,11.60
2011,07,19,06,09,11.60
2011,07,19,06,10,11.60
2011,07,19,06,11,11.60
2011,07,19,06,12,11.60
2011,07,19,06,13,11.70
2011,07,19,06,14,11.70
2011,07,19,06,15,11.70
2011,07,19,06,16,11.80
2011,07,19,06,17,11.80
2011,07,19,06,18,11.80
2011,07,19,06,19,11.90
2011,07,19,06,20,11.90
2011,07,19,06,21,11.90
2011,07,19,06,22,11.80
2011,07,19,06,23,11.80
2011,07,19,06,24,11.80
2011,07,19,06,25,11.80
2011,07,19,06,26,11.80
2011,07,19,06,27,11.80
2011,07,19,06,28,11.70
2011,07,19,06,29,11.70
2011,07,19,06,30,11.70
2011,07,19,06,31,11.70
2011,07,19,06,32,11.70
2011,07,19,06,33,11.80
2011,07,19,06,34,11.70
2011,07,19,06,35,11.70
2011,07,19,06,36,11.70
2011,07,19,06,37,11.70
2011,07,19,06,38,11.70
2011,07,19,06,39,11.70
2011,07,19,06,40,11.70
2011,07,19,06,41,11.70
2011,07,19,06,42,11.70
2011,07,19,06,43,11.70
2011,07,19,06,44,11.70
2011,07,19,06,45,11.70
2011,07,19,06,46,11.70
2011,07,19,06,47,11.70
2011,07,19,06,48,11.70
2011,07,19,06,49,11.70
2011,07,19,06,50,11.70
2011,07,19,06,51,11.70
2011,07,19,06,52,11.70
2011,07,19,06,53,11.70
2011,07,19,06,54,11.70
2011,07,19,06,55,11.70
2011,07,19,06,56,11.70
2011,07,19,06,57,11.70
2011,07,19,06,58,11.70
2011,07,19,06,59,11.70
2011,07,19,07,00,11.70
2011,07,19,07,01,11.70
2011,07,19,07,02,11.70
2011,07,19,07,03,11.80
2011,07,19,07,04,11.80
2011,07,19,07,05,11.80
2011,07,19,07,06,11.80
2011,07,19,07,07,11.80
2011,07,19,07,08,11.80
2011,07,19,07,09,11.80
2011,07,19,07,10,11.90
2011,07,19,07,11,11.90
2011,07,19,07,12,11.90
2011,07,19,07,13,11.90
2011,07,19,07,14,12.00
2011,07,19,07,15,12.00
2011,07,19,07,16,12.10
2011,07,19,07,17,12.20
2011,07,19,07,18,12.20
2011,07,19,07,19,12.20
2011,07,19,07,20,12.30
2011,07,19,07,21,12.30
2011,07,19,07,22,12.40
2011,07,19,07,23,12.40
2011,07,19,07,24,12.50
2011,07,19,07,25,12.50
2011,07,19,07,26,12.60
2011,07,19,07,27,12.60
2011,07,19,07,28,12.60
2011,07,19,07,29,12.60
2011,07,19,07,30,12.70
2011,07,19,07,31,12.70
2011,07,19,07,32,12.80
2011,07,19,07,33,12.80
2011,07,19,07,34,12.80
2011,07,19,07,35,12.80
2011,07,19,07,36,12.90
2011,07,19,07,37,12.90
2011,07,19,07,38,13.00
2011,07,19,07,39,13.10
2011,07,19,07,40,13.10
2011,07,19,07,41,13.20
2011,07,19,07,42,13.20
2011,07,19,07,43,13.30
2011,07,19,07,44,13.30
2011,07,19,07,45,13.40
2011,07,19,07,46,13.40
2011,07,19,07,47,13.50
2011,07,19,07,48,13.60
2011,07,19,07,49,13.70
2011,07,19,07,50,13.80
2011,07,19,07,51,13.80
2011,07,19,07,52,13.90
2011,07,19,07,53,14.00
2011,07,19,07,54,14.10
2011,07,19,07,55,14.20
2011,07,19,07,56,14.30
2011,07,19,07,57,14.40
2011,07,19,07,58,14.40
2011,07,19,07,59,14.50
2011,07,19,08,00,14.60
2011,07,19,08,01,14.60
2011,07,19,08,02,14.70
2011,07,19,08,03,14.70
2011,07,19,08,04,14.80
2011,07,19,08,05,14.80
2011,07,19,08,06,14.90
2011,07,19,08,07,15.00
2011,07,19,08,08,15.00
2011,07,19,08,09,15.00
2011,07,19,08,10,15.00
2011,07,19,08,11,15.10
2011,07,19,08,12,15.20
2011,07,19,08,13,15.30
2011,07,19,08,14,15.30
2011,07,19,08,15,15.40
2011,07,19,08,16,15.50
2011,07,19,08,17,15.60
2011,07,19,08,18,15.60
2011,07,19,08,19,15.70
2011,07,19,08,20,15.70
2011,07,19,08,21,15.80
2011,07,19,08,22,15.80
2011,07,19,08,23,15.70
2011,07,19,08,24,15.70
2011,07,19,08,25,15.70
2011,07,19,08,26,15.70
2011,07,19,08,27,15.70
2011,07,19,08,28,15.70
2011,07,19,08,29,15.70
2011,07,19,08,30,15.70
2011,07,19,08,31,15.70
2011,07,19,08,32,15.70
2011,07,19,08,33,15.70
2011,07,19,08,34,15.80
2011,07,19,08,35,15.80
2011,07,19,08,36,15.80
2011,07,19,08,37,15.80
2011,07,19,08,38,15.90
2011,07,19,08,39,16.00
2011,07,19,08,40,16.00
2011,07,19,08,41,16.10
2011,07,19,08,42,16.10
2011,07,19,08,43,16.20
2011,07,19,08,44,16.20
2011,07,19,08,45,16.20
2011,07,19,08,46,16.30
2011,07,19,08,47,16.20
2011,07,19,08,48,16.20
2011,07,19,08,49,16.20
2011,07,19,08,50,16.20
2011,07,19,08,51,16.20
2011,07,19,08,52,16.20
2011,07,19,08,53,16.20
2011,07,19,08,54,16.20
2011,07,19,08,55,16.10
2011,07,19,08,56,16.10
2011,07,19,08,57,16.00
2011,07,19,08,58,16.00
2011,07,19,08,59,15.90
2011,07,19,09,00,15.90
2011,07,19,09,01,15.90
2011,07,19,09,02,15.90
2011,07,19,09,03,15.90
2011,07,19,09,04,16.00
2011,07,19,09,05,16.00
2011,07,19,09,06,16.00
2011,07,19,09,07,16.00
2011,07,19,09,08,16.00
2011,07,19,09,09,16.10
2011,07,19,09,10,16.10
2011,07,19,09,11,16.10
2011,07,19,09,12,16.20
2011,07,19,09,13,16.30
2011,07,19,09,14,16.40
2011,07,19,09,15,16.40
2011,07,19,09,16,16.60
2011,07,19,09,17,16.70
2011,07,19,09,18,16.80
2011,07,19,09,19,16.90
2011,07,19,09,20,17.10
2011,07,19,09,21,17.20
2011,07,19,09,22,17.30
2011,07,19,09,23,17.40
2011,07,19,09,24,17.50
2011,07,19,09,25,17.60
2011,07,19,09,26,17.70
2011,07,19,09,27,17.80
2011,07,19,09,28,17.80
2011,07,19,09,29,17.90
2011,07,19,09,30,18.00
2011,07,19,09,31,18.00
2011,07,19,09,32,18.10
2011,07,19,09,33,18.10
2011,07,19,09,34,18.10
2011,07,19,09,35,18.10
2011,07,19,09,36,18.10
2011,07,19,09,37,18.00
2011,07,19,09,38,18.00
2011,07,19,09,39,18.00
2011,07,19,09,40,18.10
2011,07,19,09,41,18.10
2011,07,19,09,42,18.10
2011,07,19,09,43,18.10
2011,07,19,09,44,18.10
2011,07,19,09,45,18.20
2011,07,19,09,46,18.20
2011,07,19,09,47,18.20
2011,07,19,09,48,18.20
2011,07,19,09,49,18.30
2011,07,19,09,50,18.30
2011,07,19,09,51,18.30
2011,07,19,09,52,18.30
2011,07,19,09,53,18.40
2011,07,19,09,54,18.30
2011,07,19,09,55,18.30
2011,07,19,09,56,18.20
2011,07,19,09,57,18.20
2011,07,19,09,58,18.20
2011,07,19,09,59,18.10
2011,07,19,10,00,18.00
2011,07,19,10,01,18.00
2011,07,19,10,02,17.90
2011,07,19,10,03,17.90
2011,07,19,10,04,17.90
2011,07,19,10,05,17.90
2011,07,19,10,06,17.90
2011,07,19,10,07,17.90
2011,07,19,10,08,17.90
2011,07,19,10,09,18.00
2011,07,19,10,10,17.90
2011,07,19,10,11,17.90
2011,07,19,10,12,17.90
2011,07,19,10,13,17.80
2011,07,19,10,14,17.80
2011,07,19,10,15,17.70
2011,07,19,10,16,17.70
2011,07,19,10,17,17.70
2011,07,19,10,18,17.70
2011,07,19,10,19,17.70
2011,07,19,10,20,17.80
2011,07,19,10,21,17.80
2011,07,19,10,22,17.80
2011,07,19,10,23,17.90
2011,07,19,10,24,17.90
2011,07,19,10,25,18.00
2011,07,19,10,26,18.00
2011,07,19,10,27,18.10
2011,07,19,10,28,18.10
2011,07,19,10,29,18.20
2011,07,19,10,30,18.20
2011,07,19,10,31,18.00
2011,07,19,10,32,17.90
2011,07,19,10,33,17.70
2011,07,19,10,34,17.60
2011,07,19,10,35,17.40
2011,07,19,10,36,17.20
2011,07,19,10,37,17.10
2011,07,19,10,38,17.00
2011,07,19,10,39,16.90
2011,07,19,10,40,16.80
2011,07,19,10,41,16.70
2011,07,19,10,42,16.70
2011,07,19,10,43,16.70
2011,07,19,10,44,16.70
2011,07,19,10,45,16.70
2011,07,19,10,46,16.70
2011,07,19,10,47,16.80
2011,07,19,10,48,16.80
2011,07,19,10,49,16.90
2011,07,19,10,50,16.90
2011,07,19,10,51,17.00
2011,07,19,10,52,17.10
2011,07,19,10,53,17.20
2011,07,19,10,54,17.30
2011,07,19,10,55,17.50
2011,07,19,10,56,17.60
2011,07,19,10,57,17.70
2011,07,19,10,58,17.90
2011,07,19,10,59,18.00
2011,07,19,11,00,18.10
2011,07,19,11,01,18.30
2011,07,19,11,02,18.40
2011,07,19,11,03,18.50
2011,07,19,11,04,18.70
2011,07,19,11,05,18.80
2011,07,19,11,06,18.80
2011,07,19,11,07,18.80
2011,07,19,11,08,18.80
2011,07,19,11,09,18.80
2011,07,19,11,10,18.80
2011,07,19,11,11,18.80
2011,07,19,11,12,18.80
2011,07,19,11,13,18.80
2011,07,19,11,14,18.80
2011,07,19,11,15,18.80
2011,07,19,11,16,18.90
2011,07,19,11,17,18.90
2011,07,19,11,18,18.90
2011,07,19,11,19,18.90
2011,07,19,11,20,18.90
2011,07,19,11,21,18.90
2011,07,19,11,22,18.90
2011,07,19,11,23,18.90
2011,07,19,11,24,18.90
2011,07,19,11,25,18.80
2011,07,19,11,26,18.80
2011,07,19,11,27,18.80
2011,07,19,11,28,18.80
2011,07,19,11,29,18.90
2011,07,19,11,30,19.00
2011,07,19,11,31,19.10
2011,07,19,11,32,19.20
2011,07,19,11,33,19.30
2011,07,19,11,34,19.40
2011,07,19,11,35,19.60
2011,07,19,11,36,19.70
2011,07,19,11,37,19.80
2011,07,19,11,38,19.90
2011,07,19,11,39,20.10
2011,07,19,11,40,20.20
2011,07,19,11,41,20.40
2011,07,19,11,42,20.40
2011,07,19,11,43,20.50
2011,07,19,11,44,20.60
2011,07,19,11,45,20.60
2011,07,19,11,46,20.60
2011,07,19,11,47,20.60
2011,07,19,11,48,20.70
2011,07,19,11,49,20.70
2011,07,19,11,50,20.70
2011,07,19,11,51,20.70
2011,07,19,11,52,20.70
2011,07,19,11,53,20.70
2011,07,19,11,54,20.70
2011,07,19,11,55,20.80
2011,07,19,11,56,20.90
2011,07,19,11,57,20.90
2011,07,19,11,58,21.00
2011,07,19,11,59,21.10
2011,07,19,12,00,21.20
2011,07,19,12,01,21.30
2011,07,19,12,02,21.30
2011,07,19,12,03,21.40
2011,07,19,12,04,21.40
2011,07,19,12,05,21.40
2011,07,19,12,06,21.40
2011,07,19,12,07,21.40
2011,07,19,12,08,21.30
2011,07,19,12,09,21.30
2011,07,19,12,10,21.30
2011,07,19,12,11,21.30
2011,07,19,12,12,21.30
2011,07,19,12,13,21.30
2011,07,19,12,14,21.30
2011,07,19,12,15,21.30
2011,07,19,12,16,21.20
2011,07,19,12,17,21.20
2011,07,19,12,18,21.10
2011,07,19,12,19,21.20
2011,07,19,12,20,21.20
2011,07,19,12,21,21.30
2011,07,19,12,22,21.30
2011,07,19,12,23,21.40
2011,07,19,12,24,21.50
2011,07,19,12,25,21.50
2011,07,19,12,26,21.60
2011,07,19,12,27,21.50
2011,07,19,12,28,21.50
2011,07,19,12,29,21.50
2011,07,19,12,30,21.50
2011,07,19,12,31,21.40
2011,07,19,12,32,21.30
2011,07,19,12,33,21.30
2011,07,19,12,34,21.20
2011,07,19,12,35,21.20
2011,07,19,12,36,21.20
2011,07,19,12,37,21.20
2011,07,19,12,38,21.20
2011,07,19,12,39,21.10
2011,07,19,12,40,21.10
2011,07,19,12,41,21.00
2011,07,19,12,42,20.90
2011,07,19,12,43,20.90
2011,07,19,12,44,20.90
2011,07,19,12,45,20.80
2011,07,19,12,46,20.70
2011,07,19,12,47,20.70
2011,07,19,12,48,20.70
2011,07,19,12,49,20.70
2011,07,19,12,50,20.60
2011,07,19,12,51,20.60
2011,07,19,12,52,20.60
2011,07,19,12,53,20.60
2011,07,19,12,54,20.60
2011,07,19,12,55,20.70
2011,07,19,12,56,20.70
2011,07,19,12,57,20.60
2011,07,19,12,58,20.60
2011,07,19,12,59,20.60
2011,07,19,13,00,20.50
2011,07,19,13,01,20.40
2011,07,19,13,02,20.30
2011,07,19,13,03,20.30
2011,07,19,13,04,20.20
2011,07,19,13,05,20.20
2011,07,19,13,06,20.10
2011,07,19,13,07,20.10
2011,07,19,13,08,20.10
2011,07,19,13,09,20.00
2011,07,19,13,10,20.00
2011,07,19,13,11,19.90
2011,07,19,13,12,19.90
2011,07,19,13,13,19.90
2011,07,19,13,14,19.90
2011,07,19,13,15,19.90
2011,07,19,13,16,20.00
2011,07,19,13,17,20.00
2011,07,19,13,18,20.10
2011,07,19,13,19,20.20
2011,07,19,13,20,20.20
2011,07,19,13,21,20.20
2011,07,19,13,22,20.20
2011,07,19,13,23,20.20
2011,07,19,13,24,20.20
2011,07,19,13,25,20.20
2011,07,19,13,26,20.10
2011,07,19,13,27,20.10
2011,07,19,13,28,20.10
2011,07,19,13,29,20.00
2011,07,19,13,30,20.00
2011,07,19,13,31,20.00
2011,07,19,13,32,20.00
2011,07,19,13,33,20.00
2011,07,19,13,34,19.90
2011,07,19,13,35,19.90
2011,07,19,13,36,19.80
2011,07,19,13,37,19.80
2011,07,19,13,38,19.80
2011,07,19,13,39,19.80
2011,07,19,13,40,19.70
2011,07,19,13,41,19.70
2011,07,19,13,42,19.60
2011,07,19,13,43,19.50
2011,07,19,13,44,19.40
2011,07,19,13,45,19.40
2011,07,19,13,46,19.40
2011,07,19,13,47,19.40
2011,07,19,13,48,19.40
2011,07,19,13,49,19.40
2011,07,19,13,50,19.40
2011,07,19,13,51,19.40
2011,07,19,13,52,19.40
2011,07,19,13,53,19.50
2011,07,19,13,54,19.50
2011,07,19,13,55,19.60
2011,07,19,13,56,19.60
2011,07,19,13,57,19.70
2011,07,19,13,58,19.80
2011,07,19,13,59,19.90
2011,07,19,14,00,19.90
2011,07,19,14,01,20.00
2011,07,19,14,02,20.10
2011,07,19,14,03,20.10
2011,07,19,14,04,20.10
2011,07,19,14,05,20.10
2011,07,19,14,06,20.10
2011,07,19,14,07,20.10
2011,07,19,14,08,20.10
2011,07,19,14,09,20.10
2011,07,19,14,10,20.10
2011,07,19,14,11,20.00
2011,07,19,14,12,19.90
2011,07,19,14,13,19.90
2011,07,19,14,14,20.00
2011,07,19,14,15,20.00
2011,07,19,14,16,20.00
2011,07,19,14,17,20.00
2011,07,19,14,18,20.00
2011,07,19,14,19,20.10
2011,07,19,14,20,20.10
2011,07,19,14,21,20.10
2011,07,19,14,22,20.10
2011,07,19,14,23,20.10
2011,07,19,14,24,20.10
2011,07,19,14,25,20.10
2011,07,19,14,26,20.00
2011,07,19,14,27,20.00
2011,07,19,14,28,19.90
2011,07,19,14,29,19.90
2011,07,19,14,30,19.80
2011,07,19,14,31,19.80
2011,07,19,14,32,19.80
2011,07,19,14,33,19.80
2011,07,19,14,34,19.70
2011,07,19,14,35,19.70
2011,07,19,14,36,19.70
2011,07,19,14,37,19.60
2011,07,19,14,38,19.60
2011,07,19,14,39,19.60
2011,07,19,14,40,19.70
2011,07,19,14,41,19.70
2011,07,19,14,42,19.80
2011,07,19,14,43,19.80
2011,07,19,14,44,19.80
2011,07,19,14,45,19.90
2011,07,19,14,46,19.90
2011,07,19,14,47,20.00
2011,07,19,14,48,20.00
2011,07,19,14,49,20.00
2011,07,19,14,50,19.90
2011,07,19,14,51,19.90
2011,07,19,14,52,19.90
2011,07,19,14,53,20.00
2011,07,19,14,54,20.00
2011,07,19,14,55,20.00
2011,07,19,14,56,20.00
2011,07,19,14,57,20.00
2011,07,19,14,58,20.00
2011,07,19,14,59,20.00
2011,07,19,15,00,20.00
2011,07,19,15,01,20.00
2011,07,19,15,02,19.80
2011,07,19,15,03,19.70
2011,07,19,15,04,19.60
2011,07,19,15,05,19.60
2011,07,19,15,06,19.60
2011,07,19,15,07,19.60
2011,07,19,15,08,19.60
2011,07,19,15,09,19.70
2011,07,19,15,10,19.70
2011,07,19,15,11,19.90
2011,07,19,15,12,20.00
2011,07,19,15,13,20.10
2011,07,19,15,14,20.10
2011,07,19,15,15,20.30
2011,07,19,15,16,20.40
2011,07,19,15,17,20.50
2011,07,19,15,18,20.50
2011,07,19,15,19,20.60
2011,07,19,15,20,20.60
2011,07,19,15,21,20.60
2011,07,19,15,22,20.50
2011,07,19,15,23,20.30
2011,07,19,15,24,20.30
2011,07,19,15,25,20.20
2011,07,19,15,26,20.20
2011,07,19,15,27,20.10
2011,07,19,15,28,20.00
2011,07,19,15,29,19.80
2011,07,19,15,30,19.70
2011,07,19,15,31,19.60
2011,07,19,15,32,19.60
2011,07,19,15,33,19.50
2011,07,19,15,34,19.50
2011,07,19,15,35,19.40
2011,07,19,15,36,19.50
2011,07,19,15,37,19.50
2011,07,19,15,38,19.50
2011,07,19,15,39,19.60
2011,07,19,15,40,19.60
2011,07,19,15,41,19.60
2011,07,19,15,42,19.70
2011,07,19,15,43,19.80
2011,07,19,15,44,19.80
2011,07,19,15,45,19.90
2011,07,19,15,46,19.90
2011,07,19,15,47,19.90
2011,07,19,15,48,19.90
2011,07,19,15,49,19.90
2011,07,19,15,50,20.00
2011,07,19,15,51,20.00
2011,07,19,15,52,20.00
2011,07,19,15,53,20.00
2011,07,19,15,54,20.10
2011,07,19,15,55,20.10
2011,07,19,15,56,20.10
2011,07,19,15,57,20.10
2011,07,19,15,58,20.00
2011,07,19,15,59,20.00
2011,07,19,16,00,20.00
2011,07,19,16,01,19.90
2011,07,19,16,02,19.90
2011,07,19,16,03,19.90
2011,07,19,16,04,19.90
2011,07,19,16,05,19.90
2011,07,19,16,06,19.90
2011,07,19,16,07,20.00
2011,07,19,16,08,20.00
2011,07,19,16,09,20.10
2011,07,19,16,10,20.10
2011,07,19,16,11,20.10
2011,07,19,16,12,20.20
2011,07,19,16,13,20.10
2011,07,19,16,14,20.10
2011,07,19,16,15,20.00
2011,07,19,16,16,20.00
2011,07,19,16,17,20.00
2011,07,19,16,18,20.00
2011,07,19,16,19,20.00
2011,07,19,16,20,19.90
2011,07,19,16,21,19.80
2011,07,19,16,22,19.70
2011,07,19,16,23,19.60
2011,07,19,16,24,19.50
2011,07,19,16,25,19.40
2011,07,19,16,26,19.30
2011,07,19,16,27,19.20
2011,07,19,16,28,19.20
2011,07,19,16,29,19.10
2011,07,19,16,30,19.00
2011,07,19,16,31,18.90
2011,07,19,16,32,18.90
2011,07,19,16,33,18.90
2011,07,19,16,34,18.90
2011,07,19,16,35,18.90
2011,07,19,16,36,18.80
2011,07,19,16,37,18.80
2011,07,19,16,38,18.90
2011,07,19,16,39,18.80
2011,07,19,16,40,18.80
2011,07,19,16,41,18.80
2011,07,19,16,42,18.80
2011,07,19,16,43,18.80
2011,07,19,16,44,18.80
2011,07,19,16,45,18.70
2011,07,19,16,46,18.70
2011,07,19,16,47,18.70
2011,07,19,16,48,18.70
2011,07,19,16,49,18.60
2011,07,19,16,50,18.50
2011,07,19,16,51,18.50
2011,07,19,16,52,18.40
2011,07,19,16,53,18.40
2011,07,19,16,54,18.40
2011,07,19,16,55,18.40
2011,07,19,16,56,18.40
2011,07,19,16,57,18.40
2011,07,19,16,58,18.30
2011,07,19,16,59,18.20
2011,07,19,17,00,18.20
2011,07,19,17,01,18.20
2011,07,19,17,02,18.20
2011,07,19,17,03,18.10
2011,07,19,17,04,18.10
2011,07,19,17,05,18.10
2011,07,19,17,06,18.20
2011,07,19,17,07,18.20
2011,07,19,17,08,18.10
2011,07,19,17,09,18.10
2011,07,19,17,10,18.10
2011,07,19,17,11,18.10
2011,07,19,17,12,18.10
2011,07,19,17,13,18.10
2011,07,19,17,14,18.10
2011,07,19,17,15,18.20
2011,07,19,17,16,18.20
2011,07,19,17,17,18.20
2011,07,19,17,18,18.20
2011,07,19,17,19,18.20